Location: Gugi
(45.4667°N, 11.1000°E)
Time: 15:25:38
(UTC+00:00)

ATLAS 5 CENTAUR R/B - Pass Details

Date: 17 November 2019
Orbit: 563 x 1096 km, 63.3° (Epoch: 29 November)

Event Time Altitude Azimuth Distance (km) Brightness Sun altitude
Rises 16:54:51 0° 318° (NW) 3,350 5.7 -12.5°
Reaches altitude 10° 16:57:11 10° 315° (NW) 2,492 5.1 -12.9°
Maximum altitude 17:02:56 59° 237° (WSW) 1,085 3.1 -13.8°
Drops below altitude 10° 17:09:27 10° 160° (SSE) 2,814 4.8 -15.0°
Sets 17:12:14 0° 157° (SSE) 3,815 5.5 -15.4°
